Simultaneous Nadir Overpasses (SNOs) Predictions

Prediction of SNOs between LANDSAT-8 and METOP-B Satellite Orbit:

Table of predicted SNOs for the next 14.0 days since TLE Epoch: 5/30/2015
Index Date (LANDSAT-8) Time (LANDSAT-8) Lat,Lon (LANDSAT-8) SZA (LANDSAT-8 ) Date (METOP-B) Time (METOP-B) Lat,Lon (METOP-B) SZA (METOP-B ) Distance(km) Time Diff (sec)
1 06/02/2015 01:56:49 81.09,-169.76 61.15 06/02/2015 01:55:51 81.09,-169.92 61.10 2.90 58
2 06/02/2015 02:46:15 -81.11, -1.81 118.81 06/02/2015 02:46:30 -81.11, -1.95 118.82 2.53 15
3 06/04/2015 21:31:07 81.08,-103.42 60.78 06/04/2015 21:30:11 81.08,-103.59 60.74 2.93 56
4 06/04/2015 22:20:32 -81.13, 64.92 119.12 06/04/2015 22:20:49 -81.12, 64.76 119.14 2.90 17
5 06/07/2015 17:05:24 81.10, -36.79 60.50 06/07/2015 17:04:30 81.09, -36.92 60.46 2.19 54
6
